| time (UTC) | temp F | wind direction | speed knots | gust knots | rain 1hr in | rain 24hr in | rain mn in | humidity % | barometer mb |
| 20260505100455 | 0 | 134 | 4.3 | 7.8 | 0.00 | 0.00 | 0.00 | 1004.3 | |
| 20260505095951 | 0 | 90 | 3.5 | 9.6 | 0.00 | 0.00 | 0.00 | 1004.3 | |
| 20260505095448 | 0 | 91 | 3.5 | 5.2 | 0.00 | 0.00 | 0.00 | 1004.3 | |
| 20260505094944 | 0 | 91 | 2.6 | 6.1 | 0.00 | 0.00 | 0.00 | 1004.3 | |
| 20260505094441 | 0 | 117 | 4.3 | 5.2 | 0.00 | 0.00 | 0.00 | 1004.2 | |
| 20260505093936 | 0 | 104 | 2.6 | 5.2 | 0.00 | 0.00 | 0.00 | 1004.2 | |
| 20260505093434 | 0 | 125 | 3.5 | 3.5 | 0.00 | 0.00 | 0.00 | 1004.4 | |
| 20260505092931 | 0 | 92 | 2.6 | 2.6 | 0.00 | 0.00 | 0.00 | 1004.3 | |
| 20260505092428 | 0 | 147 | 3.5 | 5.2 | 0.00 | 0.00 | 0.00 | 1004.3 | |
| 20260505091926 | 0 | 101 | 0.9 | 1.7 | 0.00 | 0.00 | 0.00 | 1004.3 | |
| 20260505091423 | 0 | 83 | 0.0 | 1.7 | 0.00 | 0.00 | 0.00 | 1004.2 | |
| 20260505090921 | 0 | 49 | 0.9 | 0.9 | 0.00 | 0.00 | 0.00 | 1004.4 | |
| 20260505090419 | 0 | 160 | 0.0 | 0.9 | 0.00 | 0.00 | 0.00 | 1004.2 | |
| 20260505085916 | 0 | 189 | 0.0 | 0.9 | 0.00 | 0.00 | 0.00 | 1004.1 | |
| 20260505085414 | 0 | 89 | 1.7 | 1.7 | 0.00 | 0.00 | 0.00 | 1004.1 | |
| 20260505084912 | 0 | 125 | 1.7 | 1.7 | 0.00 | 0.00 | 0.00 | 1004.1 | |
| 20260505084410 | 0 | 141 | 0.0 | 1.7 | 0.00 | 0.00 | 0.00 | 1004.2 | |
| 20260505083908 | 0 | 169 | 0.0 | 0.9 | 0.00 | 0.00 | 0.00 | 1004.2 | |
| 20260505083405 | 0 | 147 | 0.0 | 0.9 | 0.00 | 0.00 | 0.00 | 1004.3 | |
| 20260505082901 | 0 | 143 | 0.9 | 1.7 | 0.00 | 0.00 | 0.00 | 1004.2 | |
| 20260505082357 | 0 | 143 | 0.0 | 0.9 | 0.00 | 0.00 | 0.00 | 1004.2 | |
| 20260505081854 | 0 | 246 | 0.0 | 0.0 | 0.00 | 0.00 | 0.00 | 1004.3 | |
| 20260505081350 | 0 | 258 | 0.0 | 0.0 | 0.00 | 0.00 | 0.00 | 1004.5 | |
| 20260505080847 | 0 | 242 | 0.0 | 0.9 | 0.00 | 0.00 | 0.00 | 1004.5 | |
| 20260505080343 | 0 | 321 | 0.9 | 1.7 | 0.00 | 0.00 | 0.00 | 1004.5 | |
| 20260505075839 | 0 | 280 | 0.9 | 1.7 | 0.00 | 0.00 | 0.00 | 1004.7 | |
| 20260505075336 | 0 | 201 | 0.9 | 1.7 | 0.00 | 0.00 | 0.00 | 1004.3 | |
| 20260505074833 | 0 | 139 | 1.7 | 1.7 | 0.00 | 0.00 | 0.00 | 1004.4 | |
| 20260505074330 | 0 | 193 | 0.9 | 2.6 | 0.00 | 0.00 | 0.00 | 1004.4 | |
| 20260505073828 | 0 | 232 | 0.9 | 1.7 | 0.00 | 0.00 | 0.00 | 1004.5 | |
| 20260505073326 | 0 | 164 | 0.0 | 0.0 | 0.00 | 0.00 | 0.00 | 1004.4 | |
| 20260505072822 | 0 | 214 | 0.0 | 0.9 | 0.00 | 0.00 | 0.00 | 1004.4 | |
| 20260505072318 | 0 | 43 | 0.9 | 0.9 | 0.00 | 0.00 | 0.00 | 1004.6 | |
| 20260505071814 | 0 | 332 | 0.9 | 0.9 | 0.00 | 0.00 | 0.00 | 1004.7 | |
| 20260505071311 | 0 | 270 | 0.0 | 0.9 | 0.00 | 0.00 | 0.00 | 1004.6 | |
| 20260505070809 | 0 | 270 | 0.0 | 0.9 | 0.00 | 0.00 | 0.00 | 1004.7 | |
| 20260505070305 | 0 | 310 | 0.0 | 0.9 | 0.00 | 0.00 | 0.00 | 1004.7 | |
| 20260505065800 | 0 | 300 | 1.7 | 1.7 | 0.00 | 0.00 | 0.00 | 1004.7 | |
| 20260505065258 | 0 | 105 | 0.0 | 1.7 | 0.00 | 0.00 | 0.00 | 1004.6 | |
| 20260505064755 | 0 | 336 | 1.7 | 2.6 | 0.00 | 0.00 | 0.00 | 1004.6 | |
| 20260505064252 | 0 | 321 | 1.7 | 2.6 | 0.00 | 0.00 | 0.00 | 1004.7 | |
| 20260505063749 | 0 | 306 | 3.5 | 3.5 | 0.00 | 0.00 | 0.00 | 1004.6 | |
| 20260505063246 | 0 | 278 | 1.7 | 2.6 | 0.00 | 0.00 | 0.00 | 1004.6 | |
| 20260505062742 | 0 | 263 | 1.7 | 2.6 | 0.00 | 0.00 | 0.00 | 1004.5 | |
| 20260505062240 | 0 | 340 | 2.6 | 2.6 | 0.00 | 0.00 | 0.00 | 1004.5 | |
| 20260505061737 | 0 | 339 | 2.6 | 2.6 | 0.00 | 0.00 | 0.00 | 1004.4 | |
| 20260505061235 | 0 | 294 | 2.6 | 2.6 | 0.00 | 0.00 | 0.00 | 1004.6 | |
| 20260505060732 | 0 | 326 | 2.6 | 2.6 | 0.00 | 0.00 | 0.00 | 1004.6 | |
| 20260505060229 | 0 | 18 | 0.9 | 2.6 | 0.00 | 0.00 | 0.00 | 1004.7 | |
| 20260505055724 | 0 | 110 | 1.7 | 5.2 | 0.00 | 0.00 | 0.00 | 1004.5 | |
| 20260505055220 | 0 | 73 | 1.7 | 3.5 | 0.00 | 0.00 | 0.00 | 1004.5 | |
| 20260505054718 | 0 | 71 | 4.3 | 6.1 | 0.00 | 0.00 | 0.00 | 1004.2 | |
| 20260505054216 | 0 | 108 | 1.7 | 5.2 | 0.00 | 0.00 | 0.00 | 1004.3 | |
| 20260505053714 | 0 | 112 | 2.6 | 5.2 | 0.00 | 0.00 | 0.00 | 1004.2 | |
| 20260505053210 | 0 | 105 | 1.7 | 5.2 | 0.00 | 0.00 | 0.00 | 1004.2 | |
| 20260505052707 | 0 | 120 | 2.6 | 3.5 | 0.00 | 0.00 | 0.00 | 1004.5 | |
| 20260505052204 | 0 | 98 | 1.7 | 3.5 | 0.00 | 0.00 | 0.00 | 1004.5 | |
| 20260505051701 | 0 | 128 | 1.7 | 2.6 | 0.00 | 0.00 | 0.00 | 1004.4 | |
| 20260505051159 | 0 | 109 | 1.7 | 1.7 | 0.00 | 0.00 | 0.00 | 1004.4 | |
| 20260505050657 | 0 | 98 | 0.9 | 1.7 | 0.00 | 0.00 | 0.00 | 1004.5 | |
| 20260505050155 | 0 | 97 | 1.7 | 2.6 | 0.00 | 0.00 | 0.00 | 1004.6 | |
| 20260505041624 | 0 | 129 | 1.7 | 3.5 | 0.00 | 0.00 | 0.00 | 1004.5 | |
| 20260505041122 | 0 | 108 | 2.6 | 5.2 | 0.00 | 0.00 | 0.00 | 1004.5 | |
| 20260505040619 | 0 | 97 | 3.5 | 5.2 | 0.00 | 0.00 | 0.00 | 1004.5 | |
| 20260505040116 | 0 | 113 | 2.6 | 3.5 | 0.00 | 0.00 | 0.00 | 1004.5 | |
| 20260505035612 | 0 | 113 | 1.7 | 5.2 | 0.00 | 0.00 | 0.00 | 1004.4 | |
| 20260505035109 | 0 | 129 | 3.5 | 5.2 | 0.00 | 0.00 | 0.00 | 1004.3 | |
| 20260505034605 | 0 | 129 | 1.7 | 3.5 | 0.00 | 0.00 | 0.00 | 1004.2 | |
| 20260505034102 | 0 | 116 | 3.5 | 3.5 | 0.00 | 0.00 | 0.00 | 1004.5 | |
| 20260505033559 | 0 | 120 | 2.6 | 3.5 | 0.00 | 0.00 | 0.00 | 1004.3 | |
| 20260505033058 | 0 | 137 | 1.7 | 3.5 | 0.00 | 0.00 | 0.00 | 1004.4 | |
| 20260505032555 | 0 | 123 | 3.5 | 5.2 | 0.00 | 0.00 | 0.00 | 1004.6 | |
| 20260505032051 | 0 | 122 | 2.6 | 6.1 | 0.00 | 0.00 | 0.00 | 1004.5 | |
| 20260505031548 | 0 | 116 | 2.6 | 5.2 | 0.00 | 0.00 | 0.00 | 1004.5 | |
| 20260505031045 | 0 | 114 | 4.3 | 5.2 | 0.00 | 0.00 | 0.00 | 1004.4 | |
| 20260505030542 | 0 | 118 | 5.2 | 7.0 | 0.00 | 0.00 | 0.00 | 1004.4 | |
| 20260505030038 | 0 | 123 | 4.3 | 7.0 | 0.00 | 0.00 | 0.00 | 1004.4 | |
| 20260505025533 | 0 | 120 | 1.7 | 2.6 | 0.00 | 0.00 | 0.00 | 1004.3 | |
| 20260505025033 | 0 | 116 | 7.0 | 9.6 | 0.00 | 0.00 | 0.00 | 1004.4 | |
| 20260505024529 | 0 | 119 | 6.1 | 7.0 | 0.00 | 0.00 | 0.00 | 1004.5 | |
| 20260505024026 | 0 | 105 | 3.5 | 5.2 | 0.00 | 0.00 | 0.00 | 1004.5 | |
| 20260505023523 | 0 | 138 | 6.1 | 8.7 | 0.00 | 0.00 | 0.00 | 1004.4 | |
| 20260505023021 | 0 | 87 | 3.5 | 6.1 | 0.00 | 0.00 | 0.00 | 1004.6 | |
| 20260505022518 | 0 | 145 | 5.2 | 7.0 | 0.00 | 0.00 | 0.00 | 1004.6 | |
| 20260505022015 | 0 | 131 | 5.2 | 6.1 | 0.00 | 0.00 | 0.00 | 1004.5 | |
| 20260505021512 | 0 | 112 | 2.6 | 3.5 | 0.00 | 0.00 | 0.00 | 1004.6 | |
| 20260505021009 | 0 | 123 | 2.6 | 5.2 | 0.00 | 0.00 | 0.00 | 1004.8 | |
| 20260505020503 | 0 | 125 | 3.5 | 6.1 | 0.00 | 0.00 | 0.00 | 1004.7 | |
| 20260505020000 | 0 | 130 | 2.6 | 6.1 | 0.00 | 0.00 | 0.00 | 1004.5 | |
| 20260505015457 | 0 | 122 | 3.5 | 6.1 | 0.00 | 0.00 | 0.00 | 1004.4 | |
| 20260505014954 | 0 | 129 | 3.5 | 7.8 | 0.00 | 0.00 | 0.00 | 1004.5 | |
| 20260505014451 | 0 | 141 | 3.5 | 6.1 | 0.00 | 0.00 | 0.00 | 1004.5 | |
| 20260505013948 | 0 | 121 | 6.1 | 7.0 | 0.00 | 0.00 | 0.00 | 1004.4 | |
| 20260505013445 | 0 | 115 | 3.5 | 7.0 | 0.00 | 0.00 | 0.00 | 1004.4 | |
| 20260505012943 | 0 | 131 | 5.2 | 7.8 | 0.00 | 0.00 | 0.00 | 1004.3 | |
| 20260505012441 | 0 | 119 | 6.1 | 7.8 | 0.00 | 0.00 | 0.00 | 1004.4 | |
| 20260505011937 | 0 | 140 | 3.5 | 8.7 | 0.00 | 0.00 | 0.00 | 1004.4 | |
| 20260505011433 | 0 | 130 | 5.2 | 7.0 | 0.00 | 0.00 | 0.00 | 1004.4 | |
| 20260505010930 | 0 | 114 | 4.3 | 7.0 | 0.00 | 0.00 | 0.00 | 1004.5 | |
| 20260505010426 | 0 | 138 | 4.3 | 6.1 | 0.00 | 0.00 | 0.00 | 1004.2 | |
| 20260505005922 | 0 | 139 | 7.0 | 7.0 | 0.00 | 0.00 | 0.00 | 1004.1 | |
| 20260505005419 | 0 | 107 | 2.6 | 5.2 | 0.00 | 0.00 | 0.00 | 1004.2 | |
| 20260505004917 | 0 | 112 | 4.3 | 5.2 | 0.00 | 0.00 | 0.00 | 1004.3 | |
| 20260505004413 | 0 | 111 | 1.7 | 1.7 | 0.00 | 0.00 | 0.00 | 1004.3 | |
| 20260505003910 | 0 | 136 | 0.0 | 0.0 | 0.00 | 0.00 | 0.00 | 1004.0 | |
| 20260505003407 | 0 | 214 | 0.0 | 0.0 | 0.00 | 0.00 | 0.00 | 1004.1 | |
| 20260505002903 | 0 | 226 | 0.0 | 0.0 | 0.00 | 0.00 | 0.00 | 1004.1 | |
| 20260505002400 | 0 | 226 | 0.0 | 0.0 | 0.00 | 0.00 | 0.00 | 1003.9 | |
| 20260505001858 | 0 | 227 | 0.0 | 0.0 | 0.00 | 0.00 | 0.00 | 1003.9 | |
| 20260505001355 | 0 | 245 | 0.0 | 0.0 | 0.00 | 0.00 | 0.00 | 1003.7 | |
| 20260505000853 | 0 | 215 | 0.0 | 0.0 | 0.00 | 0.00 | 0.00 | 1003.7 | |
| 20260505000351 | 0 | 215 | 0.0 | 0.0 | 0.00 | 0.00 | 0.00 | 1003.9 | |
| 20260504235847 | 0 | 96 | 0.9 | 0.9 | 0.00 | 0.00 | 0.00 | 1003.7 | |
| 20260504235344 | 0 | 184 | 0.0 | 0.0 | 0.00 | 0.00 | 0.00 | 1003.9 | |
| 20260504234840 | 0 | 146 | 1.7 | 1.7 | 0.00 | 0.00 | 0.00 | 1003.8 | |
| 20260504234338 | 0 | 161 | 2.6 | 3.5 | 0.00 | 0.00 | 0.00 | 1003.7 | |
| 20260504233834 | 0 | 155 | 1.7 | 2.6 | 0.00 | 0.00 | 0.00 | 1003.5 | |
| 20260504233330 | 0 | 167 | 1.7 | 2.6 | 0.00 | 0.00 | 0.00 | 1003.6 | |
| 20260504232827 | 0 | 118 | 1.7 | 3.5 | 0.00 | 0.00 | 0.00 | 1003.5 | |
| 20260504232324 | 0 | 126 | 3.5 | 6.1 | 0.00 | 0.00 | 0.00 | 1003.4 | |
| 20260504231821 | 0 | 119 | 3.5 | 3.5 | 0.00 | 0.00 | 0.00 | 1003.4 | |
| 20260504231317 | 0 | 130 | 3.5 | 5.2 | 0.00 | 0.00 | 0.00 | 1003.5 | |
| 20260504230813 | 0 | 127 | 2.6 | 5.2 | 0.00 | 0.00 | 0.00 | 1003.4 | |
| 20260504230312 | 0 | 131 | 3.5 | 3.5 | 0.00 | 0.00 | 0.00 | 1003.4 | |
| 20260504225810 | 0 | 127 | 7.0 | 7.8 | 0.00 | 0.00 | 0.00 | 1003.5 | |
| 20260504225306 | 0 | 176 | 3.5 | 6.1 | 0.00 | 0.00 | 0.00 | 1003.6 | |
| 20260504224803 | 0 | 114 | 3.5 | 5.2 | 0.00 | 0.00 | 0.00 | 1003.6 | |
| 20260504224300 | 0 | 158 | 5.2 | 7.8 | 0.00 | 0.00 | 0.00 | 1003.6 | |
| 20260504223757 | 0 | 174 | 1.7 | 2.6 | 0.00 | 0.00 | 0.00 | 1003.6 | |
| 20260504223252 | 0 | 127 | 0.9 | 1.7 | 0.00 | 0.00 | 0.00 | 1003.7 | |
| 20260504222749 | 0 | 179 | 0.9 | 2.6 | 0.00 | 0.00 | 0.00 | 1003.8 | |
| 20260504222246 | 0 | 167 | 1.7 | 2.6 | 0.00 | 0.00 | 0.00 | 1003.7 | |
| 20260504221744 | 0 | 146 | 1.7 | 2.6 | 0.00 | 0.00 | 0.00 | 1003.7 | |
| 20260504221241 | 0 | 227 | 4.3 | 5.2 | 0.00 | 0.00 | 0.00 | 1003.6 | |
| 20260504220738 | 0 | 199 | 0.9 | 7.0 | 0.00 | 0.00 | 0.00 | 1003.6 | |
| 20260504220235 | 0 | 113 | 8.7 | 9.6 | 0.00 | 0.00 | 0.00 | 1003.9 | |
| 20260504215732 | 0 | 212 | 3.5 | 8.7 | 0.00 | 0.00 | 0.00 | 1003.7 | |
| 20260504215228 | 0 | 131 | 6.1 | 8.7 | 0.00 | 0.00 | 0.00 | 1003.6 | |
| 20260504214724 | 0 | 188 | 3.5 | 5.2 | 0.00 | 0.00 | 0.00 | 1003.8 | |
| 20260504214221 | 0 | 176 | 4.3 | 7.0 | 0.00 | 0.00 | 0.00 | 1003.8 | |
| 20260504213718 | 0 | 114 | 0.9 | 2.6 | 0.00 | 0.00 | 0.00 | 1004.0 | |
| 20260504213214 | 0 | 253 | 2.6 | 7.8 | 0.00 | 0.00 | 0.00 | 1003.7 | |
| 20260504212711 | 0 | 333 | 5.2 | 7.0 | 0.00 | 0.00 | 0.00 | 1003.9 | |
| 20260504212208 | 0 | 195 | 3.5 | 5.2 | 0.00 | 0.00 | 0.00 | 1003.6 | |
| 20260504211705 | 0 | 127 | 5.2 | 7.8 | 0.00 | 0.00 | 0.00 | 1003.9 | |
| 20260504211201 | 0 | 143 | 5.2 | 8.7 | 0.00 | 0.00 | 0.00 | 1004.0 | |
| 20260504210659 | 0 | 95 | 1.7 | 6.1 | 0.00 | 0.00 | 0.00 | 1003.9 | |
| 20260504210155 | 0 | 12 | 1.7 | 3.5 | 0.00 | 0.00 | 0.00 | 1004.1 | |
| 20260504205653 | 0 | 243 | 5.2 | 8.7 | 0.00 | 0.00 | 0.00 | 1004.2 | |
| 20260504205150 | 0 | 272 | 3.5 | 11.3 | 0.00 | 0.00 | 0.00 | 1003.8 | |
| 20260504204649 | 0 | 223 | 2.6 | 8.7 | 0.00 | 0.00 | 0.00 | 1004.1 | |
| 20260504204147 | 0 | 308 | 7.8 | 11.3 | 0.00 | 0.00 | 0.00 | 1004.1 | |
| 20260504203645 | 0 | 214 | 3.5 | 16.5 | 0.00 | 0.00 | 0.00 | 1004.3 | |
| 20260504203143 | 0 | 328 | 5.2 | 11.3 | 0.00 | 0.00 | 0.00 | 1004.2 | |
| 20260504202642 | 0 | 191 | 7.8 | 13.0 | 0.00 | 0.00 | 0.00 | 1004.3 | |
| 20260504202140 | 0 | 230 | 4.3 | 6.1 | 0.00 | 0.00 | 0.00 | 1004.3 | |
| 20260504201636 | 0 | 202 | 2.6 | 6.1 | 0.00 | 0.00 | 0.00 | 1004.1 | |
| 20260504201134 | 0 | 232 | 2.6 | 6.1 | 0.00 | 0.00 | 0.00 | 1004.2 | |
| 20260504200631 | 0 | 209 | 6.1 | 9.6 | 0.00 | 0.00 | 0.00 | 1004.3 | |
| 20260504200128 | 0 | 305 | 7.8 | 11.3 | 0.00 | 0.00 | 0.00 | 1004.4 | |
| 20260504195624 | 0 | 193 | 4.3 | 7.0 | 0.00 | 0.00 | 0.00 | 1004.8 | |
| 20260504195120 | 0 | 139 | 9.6 | 13.0 | 0.00 | 0.00 | 0.00 | 1004.4 | |
| 20260504194617 | 0 | 131 | 8.7 | 11.3 | 0.00 | 0.00 | 0.00 | 1004.7 | |
| 20260504194113 | 0 | 275 | 8.7 | 13.9 | 0.00 | 0.00 | 0.00 | 1004.5 | |
| 20260504193609 | 0 | 244 | 3.5 | 7.0 | 0.00 | 0.00 | 0.00 | 1004.8 | |
| 20260504193108 | 0 | 280 | 5.2 | 8.7 | 0.00 | 0.00 | 0.00 | 1004.8 | |
| 20260504192606 | 0 | 202 | 8.7 | 11.3 | 0.00 | 0.00 | 0.00 | 1004.9 | |
| 20260504192104 | 0 | 288 | 7.0 | 8.7 | 0.00 | 0.00 | 0.00 | 1004.9 | |
| 20260504191602 | 0 | 128 | 8.7 | 11.3 | 0.00 | 0.00 | 0.00 | 1005.1 | |
| 20260504191057 | 0 | 273 | 8.7 | 15.6 | 0.00 | 0.00 | 0.00 | 1005.0 | |
| 20260504190554 | 0 | 253 | 11.3 | 13.0 | 0.00 | 0.00 | 0.00 | 1005.1 | |
| 20260504190050 | 0 | 163 | 8.7 | 12.2 | 0.00 | 0.00 | 0.00 | 1005.1 | |
| 20260504185547 | 0 | 138 | 6.1 | 12.2 | 0.00 | 0.00 | 0.00 | 1005.2 | |
| 20260504185043 | 0 | 251 | 7.8 | 9.6 | 0.00 | 0.00 | 0.00 | 1005.3 | |
| 20260504184539 | 0 | 166 | 6.1 | 9.6 | 0.00 | 0.00 | 0.00 | 1005.5 | |
| 20260504184034 | 0 | 215 | 5.2 | 8.7 | 0.00 | 0.00 | 0.00 | 1005.5 | |
| 20260504183532 | 0 | 205 | 6.1 | 7.8 | 0.00 | 0.00 | 0.00 | 1005.5 | |
| 20260504183030 | 0 | 242 | 1.7 | 11.3 | 0.00 | 0.00 | 0.00 | 1005.5 | |
| 20260504182526 | 0 | 264 | 4.3 | 11.3 | 0.00 | 0.00 | 0.00 | 1005.4 | |
| 20260504182024 | 0 | 173 | 5.2 | 8.7 | 0.00 | 0.00 | 0.00 | 1005.6 | |
| 20260504181521 | 0 | 160 | 7.0 | 9.6 | 0.00 | 0.00 | 0.00 | 1005.6 | |
| 20260504181019 | 0 | 272 | 4.3 | 11.3 | 0.00 | 0.00 | 0.00 | 1005.5 | |
| 20260504180518 | 0 | 215 | 4.3 | 7.8 | 0.00 | 0.00 | 0.00 | 1005.4 | |
| 20260504180016 | 0 | 185 | 3.5 | 6.1 | 0.00 | 0.00 | 0.00 | 1005.7 | |
| 20260504175513 | 0 | 286 | 7.0 | 15.6 | 0.00 | 0.00 | 0.00 | 1005.4 | |
| 20260504175010 | 0 | 216 | 4.3 | 12.2 | 0.00 | 0.00 | 0.00 | 1005.9 | |
| 20260504174508 | 0 | 191 | 7.8 | 13.9 | 0.00 | 0.00 | 0.00 | 1006.0 | |
| 20260504174005 | 0 | 222 | 1.7 | 9.6 | 0.00 | 0.00 | 0.00 | 1005.9 | |
| 20260504173501 | 0 | 232 | 2.6 | 18.2 | 0.00 | 0.00 | 0.00 | 1006.0 | |
| 20260504172959 | 0 | 311 | 8.7 | 13.9 | 0.00 | 0.00 | 0.00 | 1005.9 | |
| 20260504172454 | 0 | 277 | 6.1 | 13.9 | 0.00 | 0.00 | 0.00 | 1005.9 | |
| 20260504171951 | 0 | 119 | 4.3 | 5.2 | 0.00 | 0.00 | 0.00 | 1006.0 | |
| 20260504171448 | 0 | 265 | 8.7 | 11.3 | 0.00 | 0.00 | 0.00 | 1005.9 | |
| 20260504170945 | 0 | 319 | 8.7 | 11.3 | 0.00 | 0.00 | 0.00 | 1005.7 | |
| 20260504170441 | 0 | 262 | 3.5 | 7.0 | 0.00 | 0.00 | 0.00 | 1005.9 | |
| 20260504160401 | 0 | 242 | 6.1 | 12.2 | 0.00 | 0.00 | 0.00 | 1006.5 | |
| 20260504150825 | 0 | 231 | 5.2 | 8.7 | 0.00 | 0.00 | 0.00 | 1007.2 | |
| 20260504150322 | 0 | 248 | 6.1 | 12.2 | 0.00 | 0.00 | 0.00 | 1007.0 | |
| 20260504141252 | 0 | 133 | 7.8 | 13.9 | 0.00 | 0.00 | 0.00 | 1007.4 | |
| 20260504140748 | 0 | 183 | 8.7 | 12.2 | 0.00 | 0.00 | 0.00 | 1007.4 | |
| 20260504140244 | 0 | 166 | 8.7 | 11.3 | 0.00 | 0.00 | 0.00 | 1007.4 | |
| 20260504130713 | 0 | 133 | 7.0 | 9.6 | 0.00 | 0.00 | 0.00 | 1008.0 | |
| 20260504130209 | 0 | 147 | 12.2 | 14.8 | 0.00 | 0.00 | 0.00 | 1007.9 | |
| 20260504120133 | 0 | 159 | 6.1 | 7.8 | 0.00 | 0.00 | 0.00 | 1008.3 | |
| 20260504110600 | 0 | 110 | 2.6 | 3.5 | 0.00 | 0.00 | 0.00 | 1008.2 |